STARLINK-37436, 69365

Orbit data source: Space-Track

STARLINK-37436, 69365 is a payload satellite owned by SpaceX/Seattle (US) in LEO that was launched on Thu, 04 Jun 2026 UTC via an FALCON 9 launch vehicle from the Air Force Eastern Test Range (AFETR). Payload-class satellites include a variety of spacecraft equipped with specific instruments for various scientific and technological missions. These include communications satellites like Starlink; space stations such as the ISS; scientific satellites like the Hubble; Earth observation satellites from companies like Planet Labs, Umbra, and HawkEye 360; GPS; miniature CubeSats for education and research; and military/defense satellites.

Loading next visibility...
Identifier
69365, 2026-123N
Orbit
LEO
Country
Flag of USUS
Related business
Manufacturer
SpaceX/Seattle
Mission
Operational spacecraft
Bus & Motor
STARLINK V2MO, Unknown motor
Mass
575 kg wet, ~530 kg dry
Launch date (UTC)
2026-06-04 (2 months ago)
Launch vehicle
FALCON 9
Launch site
Air Force Eastern Test Range (AFETR)
Object type
Payload
Rocket body
Debris
Shape & HBR
BOX + PAN, 17.7 m
Radar Cross Section
Large (>1 m²)

Expand to show TLE details & history
Last TLE update: 2 days ago

TLE from 2 days ago
0 STARLINK-37436
1 69365U 26123N   26205.69367664  .00381461  00000-0  23343-2 0  9995
2 69365  53.1580  54.2079 0000410 233.7724 126.3258 15.75701769  7960
Epoch: 2026-07-24T16:38Z
TLE epoch observation values (Epoch: 2026-07-24T16:38:53.661Z)
Latitude
-0.00008°
Longitude
-137.93239°
Altitude
343.715 km
Speed
7.704 km/s
True Right ascension
03h 36m 49s
True Declination
0° 00' 00"
Sunlit
Object was in daylight at epoch
Visualization orbit readout
Latitude
Unknown
Longitude
Unknown
Altitude
Unknown
Speed
Unknown
Apparent Right ascension
Unknown
Apparent Declination
Unknown
Sunlit
N/A
Visualization observer readout
Local Sidereal Time
11:37:13
Azimuth
Unknown
Elevation
Unknown
Doppler factor
Unknown
Orbital elements
Apogee altitude
343.172 km
Perigee altitude
342.621 km
Semi-major axis
6,721.034 km
Eccentricity
0.00004
Inclination
53.158°
RAAN
54.2079°
Arg. of periapsis
233.7724°
True anomaly
126.32959°
Mean anomaly
126.3258°
Eccentric anomaly
126.32769°
Mean motion
3.93903 °/min
Orbital period
91.39 mins
BSTAR
0.0023343
Loading maneuver chart data...
Computing Atmospheric mass density...
Loading historical data...
Loading historical data...
Loading historical data...
Loading historical data...
Loading historical data...
Loading historical data...
Loading historical data...

Documentation

Showing up to 5 results
|